www.pogodaiklimat.ru

Погода и климат >> Архив погоды >> Германия >> Потсдам


ПОГОДА в Потсдаме

  • Прогноз погоды в Потсдаме
  • Монитор погоды в Потсдаме

АРХИВ ПОГОДЫ в Потсдаме

Время (UTC), дата Ветер
(напр.,м/с)
 
Видим.   Явления Облачность Т
(С)
Тd
(С)
f
(%)
Тe
(С)
Тes
(С)
Комфортность P
(гПа)
Po
(гПа)
Тmin
(С)
Tmax
(С)
R
(мм)
R24
(мм)
S
(см)
19 18.08 З 5 40 км зарница 9/6 900 м
[Cb cap Ac und]
+18.3 +17.7 96 +18 +18 1007.2 995.6
20 18.08 ЮЗ 5 25 км слаб. ливневой дождь, в посл. час гроза 9/4 2000 м
[Sc Ac As]
+18.3 +17.9 98 +18 +18 1008.3 996.7
21 18.08 ЮЗ 4 45 км в посл. час дождь {гроза, ливн. осадки} 8/1 2000 м
[Sc Ac und]
+18.0 +17.7 98 +18 +18 1008.6 997.0 0.5
22 18.08 З 5 40 км 9/6 300 м
[Cu hum Ac trans Ci]
+17.8 +17.5 98 +17 +17 1009.3 997.7
23 18.08 З 4 40 км 6/0
[Ac trans Ci]
+17.1 +16.7 97 +17 +17 1010.5 998.8
00 19.08 З 5 40 км {гроза, ливн. осадки} 6/3 200 м
[Cu hum Ac trans Ci fib]
+16.4 +16.0 97 +15 +15 1011.0 999.3 0.5
01 19.08 З 3 28 км 4/3 150 м
[St Ac trans Ci fib]
+16.0 +15.7 98 +15 +15 1011.4 999.7
02 19.08 З 3 24 км 10/0
[Ac lent Cs]
+15.6 +15.4 99 +15 +15 1012.3 1000.5
03 19.08 З 3 22 км 10/0
[As trans Cs]
+15.4 +15.2 99 +15 +15 1012.7 1000.9
04 19.08 З 4 15 км 9/0
[Ac As]
+15.3 +15.1 99 +14 +14 1013.1 1001.3
05 19.08 З 3 14 км 9/0
[Ac As]
+15.4 +15.2 99 +15 +15 1013.7 1001.9
06 19.08 ЮЗ 3 15 км 9/0
[Ac As]
+15.9 +15.5 97 +15 +16 1014.0 1002.2 +15.3 +19.4 0.5
07 19.08 ЮЗ 3 18 км 9/0
[Ac As]
+16.6 +16.0 96 +16 +18 1014.4 1002.7
08 19.08 ЮЗ 3 20 км 8/0
[Ac As Ci sp]
+17.5 +15.4 87 +17 +21 1014.8 1003.1
09 19.08 З 4 25 км 6/4 300 м
[Cu med, cong Ac As Ci sp]
+18.7 +15.1 80 +20 +23 1015.1 1003.4 0.0
10 19.08 ЮЗ 4 30 км 6/5 750 м
[Cu med, cong Ci sp]
+20.8 +12.9 61 +23 +27 комфорт 1015.2 1003.6
11 19.08 ЮЗ 6 35 км 5/5 1050 м
[Cu med, cong Ci sp]
+23.0 +11.7 49 +25 +28 комфорт 1015.3 1003.8
12 19.08 З 6 40 км 4/4 1440 м
[Cu med, cong]
+23.5 +10.4 44 +25 +28 комфорт 1015.5 1004.0
13 19.08 З 6 40 км 3/3 1500 м
[Cu med, cong]
+24.1 +8.7 37 +25 +28 комфорт 1016.0 1004.5
14 19.08 З 4 45 км 3/3 1500 м
[Cu med, cong]
+24.4 +9.1 38 +25 +29 комфорт 1016.3 1004.8
15 19.08 З 6 45 км 3/3 1500 м
[Cu med, cong]
+23.7 +7.6 36 +24 +26 комфорт 1016.7 1005.2
16 19.08 З 5 45 км 4/4 2000 м
[Cu med, cong]
+23.4 +8.3 38 +25 +25 комфорт 1016.9 1005.4
17 19.08 З 4 45 км 3/3 2000 м
[Cu med, cong Ci fib]
+22.2 +7.8 40 +23 +24 комфорт 1017.0 1005.4
18 19.08 СЗ 2 45 км 4/3 2000 м
[Sc diur, vesp Ci sp]
+20.6 +8.2 45 +23 +23 комфорт 1017.6 1005.9 +15.8 +24.7
19 19.08 СЗ 3 45 км 4/3 2000 м
[Sc Ci sp]
+18.5 +9.6 56 +19 +19 1018.2 1006.5
20 19.08 З 2 45 км 3/1 2000 м
[Sc Ci fib]
+17.3 +10.8 66 +18 +18 1018.7 1006.9
21 19.08 З 1 45 км 5/0
[Ci]
+16.9 +10.5 66 +18 +18 1018.9 1007.1
22 19.08 ЮЗ 2 45 км 5/0
[Ci fib]
+16.7 +10.3 66 +17 +17 1019.1 1007.3
23 19.08 Ю 3 40 км 8/0
[Ci]
+16.4 +9.9 65 +16 +16 1019.5 1007.7
00 20.08 Ю 4 40 км 8/0
[Ci sp]
+16.1 +8.7 61 +15 +15 1019.8 1007.9
01 20.08 Ю 5 40 км 5/0
[Ci fib]
+15.5 +9.3 67 +14 +14 1020.2 1008.3
02 20.08 ЮЗ 4 45 км 3/0
[Ci fib]
+15.3 +8.6 64 +14 +14 1020.2 1008.3
03 20.08 ЮЗ 3 45 км 5/4 2000 м
[Sc Ci fib]
+14.5 +9.0 70 +14 +14 1020.3 1008.4
04 20.08 З 3 45 км 8/5 2000 м
[Sc Ac trans Ci]
+15.1 +7.8 62 +14 +14 1020.5 1008.6
05 20.08 З 1 40 км 6/3 2000 м
[Sc Ac trans Ci]
+14.7 +8.8 68 +15 +16 1020.7 1008.8
06 20.08 Ю 2 40 км 5/1 2000 м
[Sc Ac trans Ci fib]
+15.8 +8.7 63 +16 +17 1021.1 1009.2 +14.0 +20.6
07 20.08 СЗ 1 40 км 8/1 1500 м
[Sc Ac trans Ci]
+18.3 +11.5 65 +20 +22 1021.3 1009.5
08 20.08 З 2 40 км 8/3 1500 м
[Cu Sc Ci sp]
+20.4 +10.2 52 +23 +27 комфорт 1021.4 1009.7
09 20.08 СЗ 2 45 км 9/1 1500 м
[Cu med, cong Ac und Ci]
+22.0 +10.5 48 +24 +29 комфорт 1021.7 1010.1
10 20.08 З 1 45 км 9/1 1500 м
[Cu med, cong Ac trans Cs]
+22.7 +8.6 40 +24 +31 комфорт 1021.7 1010.1
11 20.08 СЗ 1 45 км 9/1 1500 м
[Cu med, cong Cs]
+23.5 +8.8 39 +24 +35 комфорт 1021.6 1010.0
12 20.08 З 2 45 км 10/3 2000 м
[Cu med, cong As trans]
+23.6 +8.5 38 +24 +28 комфорт 1021.5 1009.9
13 20.08 СЗ 2 45 км 10/3 1500 м
[Cu med, cong As trans]
+24.2 +9.7 40 +25 +28 комфорт 1021.3 1009.7
14 20.08 СЗ 2 45 км 10/3 2000 м
[Cu med, cong As trans]
+23.9 +10.2 42 +25 +27 комфорт 1021.1 1009.5
15 20.08 С 2 35 км 10/1 1500 м
[Cu med, cong As op]
+23.4 +11.0 46 +26 +27 жарко 1021.3 1009.7
16 20.08 СЗ 2 35 км в посл. час дождь 10/3 1500 м
[Cu med, cong As op]
+22.6 +11.3 49 +25 +25 комфорт 1021.4 1009.8
17 20.08 СЗ 2 35 км в посл. час дождь 10/3 1000 м
[Cu Sc As op]
+21.4 +11.5 53 +23 +23 комфорт 1021.5 1009.8
18 20.08 З 3 30 км {дождь} 10/4 1500 м
[Sc As op]
+20.5 +11.1 55 +23 +23 комфорт 1021.8 1010.1 +15.8 +24.9 0.0
19 20.08 СЗ 3 40 км 9/0
[As op]
+19.7 +9.7 52 +21 +21 комфорт 1022.4 1010.7
20 20.08 СЗ 2 45 км 9/0
[Ac As]
+19.0 +8.7 51 +20 +20 1023.1 1011.3
21 20.08 З 2 45 км 9/9 1500 м
[Sc]
+18.2 +9.5 57 +19 +19 1023.3 1011.5
22 20.08 С 3 40 км в посл. час дождь 10/9 1500 м
[Sc]
+17.4 +10.5 64 +17 +17 1023.9 1012.1
23 20.08 З 2 45 км в посл. час дождь 10/9 1500 м
[Sc]
+17.3 +10.7 65 +18 +18 1024.6 1012.7
00 21.08 СВ 1 45 км {дождь} 10/9 2000 м
[Sc]
+16.6 +10.6 68 +17 +17 1024.4 1012.5 0.0
01 21.08 ЮЗ 1 45 км 9/9 1500 м
[Sc]
+16.2 +11.0 71 +17 +17 1024.7 1012.8
02 21.08 ЮЗ 3 40 км 8/4 1500 м
[Sc Ci fib]
+15.1 +10.7 75 +14 +14 1025.1 1013.1
03 21.08 З 4 40 км 6/3 1500 м
[Sc Ci fib]
+14.3 +10.9 80 +13 +13 1025.2 1013.2
04 21.08 З 3 35 км 1/1 1500 м
[Sc]
+13.4 +10.1 80 +12 +12 1025.6 1013.6
05 21.08 З 4 35 км 1/0
[Ac trans]
+13.2 +10.5 84 +11 +12 1026.3 1014.3
06 21.08 З 4 35 км 1/0
[Ac lent]
+14.2 +10.9 81 +13 +14 1027.1 1015.1 +13.1 +20.4 0.0
07 21.08 З 4 35 км 1/0
[Ac lent]
+16.1 +11.4 74 +15 +18 1027.5 1015.6
08 21.08 СЗ 4-6
{7}
40 км ясно +18.3 +11.7 65 +18 +23 1027.9 1016.0
09 21.08 СЗ 3 45 км 1/1 1000 м
[Cu hum]
+19.8 +10.7 56 +21 +29 комфорт 1027.9 1016.1
10 21.08 З 3 45 км 3/3 1080 м
[Cu med, cong]
+20.7 +10.4 52 +23 +30 комфорт 1027.8 1016.0
11 21.08 СЗ 4 45 км 4/4 1300 м
[Cu med, cong]
+22.4 +10.4 47 +24 +29 комфорт 1027.8 1016.1
12 21.08 З 4 50 км 4/4 1500 м
[Cu med, cong]
+22.7 +7.9 39 +24 +29 комфорт 1027.7 1016.0
13 21.08 З 3 50 км 4/4 1500 м
[Cu med, cong]
+22.0 +7.6 39 +23 +28 комфорт 1027.5 1015.8
14 21.08 СЗ 4 50 км 4/4 1500 м
[Cu med, cong]
+24.1 +7.5 35 +24 +28 комфорт 1027.3 1015.7
15 21.08 З 3 50 км 3/3 1500 м
[Cu med, cong]
+23.2 +6.0 33 +24 +26 комфорт 1027.3 1015.6
16 21.08 З 3 50 км 3/3 2000 м
[Sc diur, vesp]
+22.6 +5.7 33 +23 +24 комфорт 1027.5 1015.8
17 21.08 СЗ 2 50 км 1/1 2000 м
[Sc diur, vesp Ci fib]
+21.6 +5.8 36 +22 +23 комфорт 1027.5 1015.8
18 21.08 С 2 40 км 3/1 2000 м
[Sc Ci fib]
+19.8 +7.0 43 +21 +21 комфорт 1027.8 1016.0 +14.1 +24.3
19 21.08 СВ 3 40 км 3/0
[Ac lent Ci fib]
+17.6 +7.4 51 +18 +18 1028.1 1016.2
20 21.08 СВ 3 45 км 1/0
[Ci fib]
+17.2 +7.7 54 +17 +17 1028.3 1016.4
21 21.08 В 3 45 км 3/0
[Ci fib]
+16.7 +6.9 52 +17 +17 1028.6 1016.7
22 21.08 В 3 45 км 3/0
[Ci fib]
+16.4 +7.6 56 +16 +16 1028.7 1016.7
23 21.08 В 3 45 км 5/0
[Ci]
+16.2 +7.2 55 +16 +16 1028.7 1016.7
00 22.08 В 4 45 км 5/0
[Ci fib]
+15.0 +7.9 62 +14 +14 1028.6 1016.6
01 22.08 ЮВ 3 45 км 9/0
[Ci]
+14.4 +7.3 62 +14 +14 1028.6 1016.6
02 22.08 ЮВ 4 45 км 9/0
[Ci fib]
+13.7 +8.2 69 +12 +12 1028.4 1016.3
03 22.08 В 4 40 км 6/0
[Ci fib]
+13.3 +7.7 69 +12 +12 1028.3 1016.2
04 22.08 В 4 35 км 5/0
[Ci fib]
+12.9 +7.9 72 +11 +11 1028.4 1016.3
05 22.08 В 4 35 км 3/0
[Ac lent Ci fib]
+12.8 +8.7 76 +11 +11 1028.6 1016.5
06 22.08 В 4 35 км 1/0
[Ci fib]
+13.7 +8.6 71 +12 +13 1028.8 1016.7 +12.7 +19.8
07 22.08 В 2 35 км 1/0
[Ci fib]
+16.4 +9.5 64 +17 +21 1028.5 1016.6
08 22.08 В 2 40 км 1/0
[Ci fib]
+20.6 +9.0 47 +23 +29 комфорт 1028.5 1016.7
09 22.08 ЮВ 2 45 км 1/1 1500 м
[Cu hum Ci fib]
+22.6 +9.9 44 +24 +33 комфорт 1028.3 1016.6
10 22.08 ЮВ 3 50 км 4/3 1500 м
[Cu hum Ci fib]
+24.3 +6.9 33 +24 +31 комфорт 1027.9 1016.3
11 22.08 В 2 50 км 4/3 1500 м
[Cu hum Ci fib]
+24.6 +7.7 34 +25 +33 комфорт 1027.4 1015.8
12 22.08 Ю 2 50 км 3/1 1500 м
[Cu hum Ci fib]
+26.1 +8.6 33 +26 +37 жарко 1026.7 1015.2
13 22.08 Ю 2 50 км 3/1 1500 м
[Cu hum Ci fib]
+25.2 +6.3 30 +25 +34 комфорт 1026.3 1014.7
14 22.08 ЮВ 3 50 км 3/1 1500 м
[Cu hum Ci fib]
+25.9 +6.0 28 +25 +31 комфорт 1025.9 1014.3
15 22.08 ЮВ 2 50 км 3/1 2000 м
[Cu hum Ci fib]
+26.3 +6.8 29 +26 +30 жарко 1025.5 1014.0
16 22.08 ЮВ 3 45 км 3/1 2000 м
[Cu hum Ci fib]
+26.4 +6.2 28 +26 +28 жарко 1025.3 1013.8
17 22.08 ЮВ 2 45 км 1/0
[Ci fib]
+24.8 +7.1 32 +25 +25 комфорт 1025.2 1013.6
18 22.08 ЮВ 2 45 км 1/0
[Ci fib]
+22.1 +8.7 42 +23 +23 комфорт 1025.2 1013.5 +13.7 +27.0
19 22.08 ЮВ 3 40 км 1/0
[Ci fib]
+20.3 +8.7 47 +22 +22 комфорт 1025.8 1014.0
20 22.08 ЮВ 3 40 км 1/0
[Ci fib]
+19.6 +8.9 50 +21 +21 комфорт 1026.2 1014.4
21 22.08 ЮВ 4 40 км 1/0
[Ci fib]
+19.6 +9.5 52 +21 +21 комфорт 1026.2 1014.4
22 22.08 ЮВ 4-7
{7}
40 км ясно +18.0 +10.2 60 +18 +18 1026.4 1014.5
23 22.08 ЮВ 5-7
{7}
40 км ясно +17.7 +11.1 65 +17 +17 1026.7 1014.8
00 23.08 Ю 4 40 км ясно +16.9 +11.2 69 +16 +16 1026.6 1014.7
01 23.08 Ю 3-5
{8}
40 км ясно +15.5 +11.1 75 +15 +15 1026.6 1014.6
02 23.08 Ю 4-5
{6}
40 км ясно +15.1 +11.4 79 +14 +14 1026.5 1014.5
03 23.08 Ю 4 40 км ясно +14.7 +11.4 81 +13 +13 1026.8 1014.8
04 23.08 ЮВ 4-5
{5}
40 км ясно +14.2 +11.4 83 +13 +13 1026.8 1014.8
05 23.08 ЮВ 5-5
{5}
35 км ясно +14.2 +11.3 83 +12 +13 1027.1 1015.1
06 23.08 ЮВ 3 35 км 1/0
[Ci fib]
+15.2 +12.0 81 +15 +16 1027.3 1015.3 +14.1 +22.1
07 23.08 ЮВ 2 35 км 1/0
[Ci fib]
+17.4 +12.7 74 +18 +22 1027.4 1015.5
08 23.08 ЮВ 2 35 км 3/0
[Ci]
+21.3 +12.8 58 +24 +30 комфорт 1027.3 1015.6
09 23.08 ЮВ 3 35 км 3/0
[Ci fib]
+22.9 +12.1 51 +26 +33 жарко 1027.3 1015.6
10 23.08 ЮВ 2 40 км 3/0
[Ci fib]
+24.3 +10.8 43 +26 +36 жарко 1027.0 1015.4
11 23.08 Ю 2 45 км 1/0
[Ci fib]
+25.6 +10.3 38 +26 +38 жарко 1026.6 1015.0
12 23.08 Ю 2 45 км 1/0
[Ci fib]
+26.1 +9.9 36 +27 +38 жарко 1026.1 1014.6
13 23.08 СВ 2 45 км 3/0
[Ci]
+26.8 +9.5 34 +27 +37 жарко 1025.6 1014.1
14 23.08 В 1 45 км 3/0
[Ci fib]
+27.7 +9.3 32 +28 +36 жарко 1025.1 1013.6
15 23.08 В 2 45 км 3/0
[Ci fib]
+28.5 +9.4 30 +28 +33 жарко 1024.7 1013.3
16 23.08 В 1 45 км 3/0
[Ci fib]
+27.9 +8.4 29 +28 +30 жарко 1024.5 1013.0
17 23.08 СВ 2 45 км 1/0
[Ci fib]
+26.3 +9.3 34 +27 +27 жарко 1024.3 1012.8
18 23.08 СВ 2 45 км 3/0
[Ci]
+23.8 +10.6 43 +25 +25 комфорт 1024.4 1012.8 +15.2 +28.7
19 23.08 В 3 45 км 3/0
[Ci fib]
+21.9 +10.6 49 +24 +24 комфорт 1024.8 1013.1
20 23.08 В 4 45 км 3/0
[Ci fib]
+20.9 +10.5 51 +23 +23 комфорт 1024.9 1013.2
21 23.08 ЮВ 3 45 км ясно +19.4 +11.0 58 +21 +21 комфорт 1025.0 1013.2
22 23.08 В 4-5
{5}
45 км ясно +19.2 +11.0 59 +20 +20 1025.1 1013.3
23 23.08 ЮВ 4-5
{5}
45 км ясно +18.5 +11.4 63 +19 +19 1025.2 1013.4
00 24.08 ЮВ 4 45 км ясно +17.8 +11.5 67 +18 +18 1025.0 1013.2
01 24.08 ЮВ 4-5
{5}
45 км ясно +17.2 +11.5 69 +17 +17 1025.0 1013.1
02 24.08 В 4-5
{5}
45 км ясно +16.7 +11.7 72 +16 +16 1024.9 1013.0
03 24.08 В 4 45 км ясно +16.4 +11.9 75 +16 +16 1025.1 1013.2
04 24.08 В 4 40 км 1/0
[Ci fib]
+15.9 +12.1 78 +15 +15 1025.0 1013.1
05 24.08 В 4 40 км 1/0
[Ci fib]
+15.8 +12.2 79 +15 +15 1025.0 1013.1
06 24.08 В 3 30 км 1/0
[Ci fib]
+16.5 +12.7 78 +16 +18 1025.1 1013.2 +15.8 +23.7
07 24.08 В 2 30 км 1/0
[Ci fib]
+19.2 +13.0 67 +21 +25 комфорт 1025.1 1013.3
08 24.08 В 3 35 км 1/0
[Ci fib]
+23.1 +12.7 52 +26 +31 жарко 1024.8 1013.2
09 24.08 В 4 40 км 5/5 1500 м
[Sc Ci fib]
+25.1 +12.0 44 +27 +30 жарко 1024.7 1013.2
10 24.08 В 4 40 км 3/3 1440 м
[Cu Sc]
+26.0 +12.5 43 +28 +33 жарко 1024.2 1012.7
11 24.08 В 5 40 км 4/4 1500 м
[Cu med, cong]
+27.1 +13.4 43 +29 +33 жарко 1023.7 1012.2
12 24.08 В 4 40 км 3/3 1500 м
[Cu med, cong]
+28.4 +13.5 40 +30 +36 жарко 1023.3 1011.9
13 24.08 В 5 40 км 3/3 1500 м
[Cu med, cong Ci sp]
+27.8 +13.0 40 +29 +33 жарко 1022.8 1011.4
14 24.08 В 5 45 км 4/4 1500 м
[Cu hum Ci sp]
+28.7 +12.0 36 +30 +32 жарко 1022.5 1011.1
15 24.08 В 5 45 км 4/4 1500 м
[Cu hum Ci sp]
+28.0 +12.0 37 +29 +31 жарко 1022.1 1010.7
16 24.08 В 5 45 км 3/3 1500 м
[Cu hum Ci sp]
+27.5 +12.3 39 +29 +30 жарко 1021.8 1010.4
17 24.08 В 5 45 км 3/3 1500 м
[Sc diur, vesp Ci sp]
+26.8 +12.3 41 +28 +28 жарко 1021.5 1010.1
18 24.08 В 3 45 км 4/3 1500 м
[Sc Ci fib]
+25.0 +13.0 47 +27 +27 жарко 1021.6 1010.1 +16.5 +29.9
19 24.08 В 3 40 км 4/3 1500 м
[Sc Ci fib]
+22.5 +12.8 54 +25 +25 комфорт 1021.9 1010.3
20 24.08 В 4 40 км 4/3 1500 м
[Sc Ci fib]
+21.2 +13.2 60 +24 +24 комфорт 1022.0 1010.3
21 24.08 В 4 40 км 4/3 1500 м
[Sc Ci fib]
+20.2 +13.1 64 +22 +22 комфорт 1021.9 1010.2
22 24.08 В 4 40 км 1/0
[Ci fib]
+19.7 +13.2 66 +21 +21 комфорт 1021.9 1010.2
23 24.08 В 4 40 км 1/0
[Ci fib]
+19.5 +13.5 68 +21 +21 комфорт 1021.9 1010.2
00 25.08 В 5 40 км ясно +19.2 +13.1 68 +20 +20 1021.5 1009.8
01 25.08 В 5 40 км 1/1 1500 м
[Sc]
+19.3 +12.9 66 +20 +20 1021.2 1009.5
02 25.08 В 4-6
{6}
40 км ясно +18.5 +13.0 70 +19 +19 1021.1 1009.3
03 25.08 В 5 40 км 5/5 1500 м
[Sc]
+18.9 +12.8 68 +20 +20 1020.9 1009.2
04 25.08 В 5 35 км 5/4 1500 м
[Sc Ci fib]
+18.4 +12.6 69 +18 +18 1020.8 1009.0
05 25.08 В 6 35 км 5/4 1500 м
[Cu Sc Ci fib]
+18.8 +12.8 68 +19 +19 1021.0 1009.3
06 25.08 В 5 40 км 8/6 1500 м
[Cu Sc Ci fib]
+19.5 +13.0 66 +21 +21 комфорт 1020.9 1009.2 +18.2 +24.9
07 25.08 В 5 35 км 6/5 1500 м
[Cu Sc Ci fib]
+21.2 +14.0 63 +24 +25 комфорт 1021.4 1009.7
08 25.08 В 4 35 км 3/1 1500 м
[Cu med, cong Ci fib]
+24.0 +14.5 55 +27 +30 жарко 1021.2 1009.7
09 25.08 В 5 35 км 3/1 1500 м
[Cu med, cong Ac cast Ci fib]
+26.5 +14.8 49 +29 +33 жарко 1021.3 1009.9
10 25.08 В 5 35 км 3/0
[Ac cast Ci fib]
+27.7 +14.0 43 +30 +35 жарко 1021.1 1009.7
11 25.08 В 4 35 км 3/0
[Ac trans Ci fib]
+28.8 +13.6 39 +30 +38 жарко 1020.9 1009.5
12 25.08 В 4 35 км 3/0
[Ac trans Ci fib]
+30.4 +13.7 36 +32 +39 жарко 1020.4 1009.1
13 25.08 В 5 30 км 1/0
[Ci fib]
+30.7 +13.1 34 +32 +37 жарко 1020.2 1008.9
14 25.08 В 4 30 км 3/1 1500 м
[Cu med, cong Ci fib]
+31.8 +13.3 32 +33 +37 жарко 1019.6 1008.4
15 25.08 В 4 30 км 3/1 2000 м
[Cu med, cong Ci fib]
+31.5 +13.3 33 +33 +35 жарко 1019.2 1008.0
17 25.08 В 4 35 км 3/0
[Ac cast Ci sp]
+29.5 +13.7 38 +31 +31 жарко 1019.4 1008.1

 

Местоположение метеостанции Потсдам (Германия): широта 52.38 долгота 13.07 высота над уровнем моря 100 м.

В архиве по умолчанию представлена погода в Потсдаме за последнюю неделю. Архивные данные за месяц целиком и за предыдущие месяцы, начиная с января 2011 года, Вы можете получить, выбрав интересующий диапазон дат из раскрывающегося списка и нажав кнопку "Ввод!".


*Определитесь, кто Вы:
робот инопланетянин человек

Внимание! Время в таблицах - всемирное. Для получения местного времени необходимо прибавить поправку, которая равна 1 ч.

Смотрите также архив погоды в соседних городах и на ближайших метеорологических станциях:

Погода в Берлин-Далеме (Германия) (19 км)
Погода в Берлине (Германия) (25 км)
Погода в Берлин-Тегеле (Германия) (27 км)
Погода в Берлин-Шёнефельде (Германия) (31 км)
Погода в Баруте (Германия) (47 км)
Погода в Визенбурге (Германия) (50 км)
Погода в Нойруппине (Германия) (60 км)
Погода в Гентине (Германия) (61 км)
Погода в Виттенберге (Германия) (63 км)
Погода на Базе ВВС Holzdorf (Германия) (68 км)

Пояснения к столбцам:

Ветер - указаны скорость ветра в м/с - средняя за 10 мин, порывы в срок и между сроками (в фигурных скобках) и направление, откуда дует ветер: С - северный, СВ - северо-восточный, В - восточный, ЮВ - юго-восточный, Ю - южный, ЮЗ - юго-западный, З - западный, СЗ - северо-западный.
Видимость - горизонтальная дальность видимости в метрах или километрах. При видимости от 1 до 10 км при отсутствии осадков обычно наблюдается дымка, при ухудшении видимости до 1 км и менее - туман. В сухую погоду видимость может ухудшаться дымом, пылью или мглою.
Явления - указаны атмосферные явления, наблюдавшиеся в срок или в последний час перед сроком; фигурными скобками обозначены явления, наблюдавшиеся между сроками (за 1-3 часа до срока); квадратными скобками обозначены град или гололедные отложения с указанием их диаметра в мм.
Облачность - указаны через наклонную черту общая и нижняя облачность в баллах и высота нижней границы облаков в метрах; квадратными скобками обозначены формы облаков: Ci - перистые, Cs - перисто-слоистые, Cc - перисто-кучевые, Ac - высококучевые, As - высокослоистые, Sc - слоисто-кучевые, Ns - слоисто-дождевые, Cu - кучевые, Cb - кучево-дождевые. Подробнее классификацию облаков см. в Атласе облаков (PDF).
T - Температура воздуха - температура, измеренная на высоте 2 м над землей.
Td - Температура точки росы - температура, при понижении до которой содержащийся в воздухе водяной пар достигнет насыщения.
f - Относительная влажность воздуха - влажноcть воздуха, измеренная на высоте 2 м над землей.
Te - Эффективная температура - температура, которую ощущает одетый по сезону человек в тени. Характеристика душности погоды. При расчете учитывается влияние влажности воздуха и скорости ветра на теплоощущения человека.
Tes - Эффективная температура на солнце - температура, которую ощущает человек, с поправкой на солнечный нагрев. Характеристика знойности погоды. Зависит от высоты солнца над горизонтом, облачности и скорости ветра. Ночью, в пасмурную погоду, а также при ветре 12 м/с и более поправка равна нулю.
P - Атмосферное давление - приведенное к уровню моря атмосферное давление.
Po - Атмосферное давление - измеренное на уровне метеостанции атмосферное давление.
Tmin - Минимальная температура - минимум температуры воздуха на высоте 2 м над землей.
Tmax - Максимальная температура - максимум температуры воздуха на высоте 2 м над землей.
R - Количество осадков - Количество выпавших осадков за период времени, мм. При наведении курсора мыши на число - период времени, за который выпало указанное количество осадков.
R24 - Количество осадков - Количество выпавших осадков за 24 часа, мм.
S - Снежный покров - Высота снежного покрова, см. При наведении курсора мыши на число - состояние снежного покрова и степень покрытия местности в баллах.